KBGR

Bangor International Airport

Airport
ICAO code
KBGR
IATA Code
BGR
Summary
ICAO Region
NAM
ICAO Territory
Location

Bangor, Maine

Serving
Bangor
Elevation
192 ft
Coordinates
44° 48' 27" N , 68° 49' 41" W
KCC
Airport CFIT
Altimeter Temperature Error Correction
Airport WX
Cumulonimbus
Metar
KBGR 122353Z 17005KT 10SM SCT037 BKN045 BKN060 27/22 A3009 RMK AO2 SLP187 T02670217 10306 20267 53006

Description

International airport serving Bangor, Maine.

Airport map

Aerial View

SKYbrary Partners:

Safety knowledge contributed by: